Huntsville, AL

12:58 AM CDT on March 28, 2017 (GMT -0500)
Huntsville International

Weather History for KHSV - October, 2010

Change the Weather History Date:

Wednesday, October 13, 2010

  Actual Average Record
Temperature  
Mean Temperature 66 °F 64 °F  
Max Temperature 78 °F 76 °F 89 °F (1954)
Min Temperature 53 °F 52 °F 28 °F (1909)
Degree Days  
Heating Degree Days 0 4  
Month to date heating degree days 39 35  
Since 1 July heating degree days 48 48  
Cooling Degree Days 1 2  
Month to date cooling degree days 29 44  
Year to date cooling degree days 2452 1914  
Growing Degree Days 15 (Base 50)    
Moisture  
Dew Point 58 °F    
Average Humidity 74    
Maximum Humidity 100    
Minimum Humidity 47    
Precipitation  
Precipitation 0.27 in 0.12 in 2.66 in (2001)
Month to date precipitation 0.45 1.44  
Year to date precipitation 32.08 41.48  
Snow  
Snow 0.00 in - - ()
Month to date snowfall 0.0  
Since 1 July snowfall 0.0  
Since 1 September snowfall 0.0  
Snow Depth 0.00 in    
Sea Level Pressure  
Sea Level Pressure 30.00 in    
Wind  
Wind Speed 4 mph (North)    
Max Wind Speed 21 mph    
Max Gust Speed 25 mph    
Visibility 5 miles    
Events Fog , Rain    
T = Trace of Precipitation, MM = Missing Value Source: NWS Daily Summary

Daily Weather History Graph

Daily Weather History Graph

Search for Another Location

Airport or City:

Trip Planner

Search our weather history database for the weather conditions in past years. The results will help you decide how hot, cold, wet, or windy it might be!

Date:

Astronomy

Oct. 13, 2010 Rise Set
Actual Time 6:51 AM CDT 6:15 PM CDT
Civil Twilight 6:25 AM CDT 6:40 PM CDT
Nautical Twilight 5:56 AM CDT 7:09 PM CDT
Astronomical Twilight 5:27 AM CDT 7:38 PM CDT
Moon 12:59 PM CDT (10/13) 11:04 PM CDT (10/13)
Length of Visible Light 12h 14m
Length of Day
11h 23m
Waxing Crescent, 38% of the Moon is Illuminated
Oct 13
Waxing Crescent
Oct 14
First Quarter
Oct 22
Full
Oct 30
Last Quarter
Nov 5
New

Hourly Weather History & Observations

Time (CDT) Temp. Dew Point Humidity Pressure Visibility Wind Dir Wind Speed Gust Speed Precip Events Conditions
12:53 AM 61.0 °F 59.0 °F 93% 29.96 in 10.0 mi Calm Calm - N/A   Overcast
1:53 AM 60.1 °F 59.0 °F 96% 29.98 in 10.0 mi Calm Calm - N/A   Overcast
2:53 AM 59.0 °F 57.9 °F 96% 29.96 in 6.0 mi Calm Calm - N/A   Scattered Clouds
3:34 AM 57.2 °F 57.2 °F 100% 29.97 in 1.2 mi Calm Calm - N/A   Partly Cloudy
3:42 AM 57.2 °F 57.2 °F 100% 29.97 in 0.5 mi Calm Calm - N/A Fog Fog
3:53 AM 57.0 °F 57.0 °F 100% 29.96 in 0.8 mi Calm Calm - N/A   Partly Cloudy
4:09 AM 55.4 °F 55.4 °F 100% 29.97 in 0.2 mi Calm Calm - N/A   Partly Cloudy
4:20 AM 55.4 °F 55.4 °F 100% 29.96 in 0.1 mi Calm Calm - N/A Fog Fog
4:24 AM 55.4 °F 55.4 °F 100% 29.97 in 0.2 mi Calm Calm - N/A Fog Fog
4:53 AM 55.9 °F 55.9 °F 100% 29.95 in 0.2 mi Calm Calm - N/A Fog Fog
5:11 AM 53.6 °F 53.6 °F 100% 29.97 in 0.8 mi Calm Calm - N/A   Scattered Clouds
5:27 AM 53.6 °F 53.6 °F 100% 29.98 in 0.2 mi Calm Calm - N/A Fog Fog
5:44 AM 55.4 °F 55.4 °F 100% 29.98 in 0.1 mi East 3.5 mph - N/A Fog Fog
5:53 AM 55.9 °F 55.9 °F 100% 29.98 in 0.2 mi East 5.8 mph - N/A Fog Fog
6:01 AM 57.2 °F 57.2 °F 100% 29.99 in 0.2 mi ESE 5.8 mph - N/A Fog Fog
6:30 AM 55.4 °F 55.4 °F 100% 29.99 in 0.8 mi Calm Calm - N/A   Scattered Clouds
6:39 AM 55.4 °F 55.4 °F 100% 30.00 in 0.8 mi Calm Calm - N/A   Scattered Clouds
6:49 AM 55.4 °F 55.4 °F 100% 30.00 in 1.0 mi Calm Calm - N/A   Scattered Clouds
6:53 AM 55.0 °F 55.0 °F 100% 30.00 in 1.0 mi Calm Calm - N/A   Scattered Clouds
7:53 AM 59.0 °F 59.0 °F 100% 30.01 in 1.5 mi Calm Calm - N/A   Mostly Cloudy
8:02 AM 59.0 °F 59.0 °F 100% 30.03 in 2.5 mi Calm Calm - N/A   Mostly Cloudy
8:35 AM 60.8 °F 60.8 °F 100% 30.04 in 3.0 mi SSE 3.5 mph - N/A   Mostly Cloudy
8:53 AM 63.0 °F 61.0 °F 93% 30.03 in 5.0 mi ESE 3.5 mph - N/A   Mostly Cloudy
9:53 AM 66.0 °F 60.1 °F 81% 30.05 in 8.0 mi North 3.5 mph - N/A   Mostly Cloudy
10:06 AM 68.0 °F 60.8 °F 78% 30.05 in 10.0 mi Calm Calm - N/A   Mostly Cloudy
10:36 AM 68.0 °F 60.8 °F 78% 30.05 in 10.0 mi West 3.5 mph - N/A   Scattered Clouds
10:53 AM 69.1 °F 61.0 °F 75% 30.04 in 10.0 mi NNW 4.6 mph - N/A   Scattered Clouds
11:53 AM 72.0 °F 59.0 °F 64% 30.02 in 10.0 mi Variable 4.6 mph - N/A   Scattered Clouds
12:53 PM 75.0 °F 59.0 °F 57% 29.99 in 10.0 mi Variable 5.8 mph - N/A   Partly Cloudy
1:53 PM 75.9 °F 57.0 °F 52% 29.98 in 10.0 mi Variable 4.6 mph - N/A   Scattered Clouds
2:53 PM 77.0 °F 55.9 °F 48% 29.97 in 10.0 mi West 6.9 mph - N/A   Scattered Clouds
3:53 PM 75.0 °F 55.9 °F 51% 29.97 in 10.0 mi WNW 6.9 mph - N/A   Mostly Cloudy
4:53 PM 73.9 °F 57.9 °F 57% 29.97 in 10.0 mi North 5.8 mph - 0.00 in   Mostly Cloudy
5:53 PM 73.0 °F 57.9 °F 59% 29.97 in 10.0 mi North 4.6 mph - N/A   Mostly Cloudy
6:53 PM 70.0 °F 57.0 °F 63% 30.00 in 10.0 mi North 4.6 mph - N/A   Mostly Cloudy
7:53 PM 66.0 °F 57.9 °F 75% 30.00 in 10.0 mi North 3.5 mph - N/A   Partly Cloudy
8:53 PM 68.0 °F 57.9 °F 70% 30.02 in 10.0 mi NNW 17.3 mph 25.3 mph N/A   Overcast
9:09 PM 62.6 °F 60.8 °F 94% 30.04 in 1.8 mi North 15.0 mph 25.3 mph 0.10 in Rain Heavy Rain
9:16 PM 62.6 °F 60.8 °F 94% 30.04 in 2.0 mi NNW 11.5 mph 20.7 mph 0.20 in Rain Heavy Rain
9:24 PM 62.6 °F 60.8 °F 94% 30.05 in 5.0 mi NNW 9.2 mph - 0.22 in Rain Rain
9:53 PM 64.0 °F 60.1 °F 87% 30.04 in 10.0 mi NNW 4.6 mph - 0.27 in Rain Light Rain
10:53 PM 63.0 °F 61.0 °F 93% 30.04 in 10.0 mi NNW 5.8 mph - 0.00 in   Overcast
11:53 PM 62.6 °F 60.8 °F 94% 30.06 in 10.0 mi NNW 6.9 mph - N/A   Overcast